FW1299 Weather Reports


Display with metric or nautical units.
time (UTC)temp
F
wind
direction
speed
MPH
gust
MPH
rain 1hr
in
rain 24hr
in
rain mn
in
humidity
%
barometer
mb
20260507235254 57 128 0.0 0.0 0.00 0.44 0.42 52 1008.3
20260507233252 59 128 0.0 0.0 0.00 0.44 0.42 49 1008.2
20260507232254 60 128 0.0 0.0 0.00 0.44 0.42 48 1008.1
20260507231252 62 150 0.0 0.0 0.00 0.44 0.42 48 1007.9
20260507230251 63 150 0.0 0.0 0.00 0.44 0.42 43 1007.9
20260507225251 65 150 0.0 0.0 0.00 0.44 0.42 43 1007.9
20260507224253 66 150 0.0 1.0 0.00 0.44 0.42 41 1008.0
20260507223251 65 72 0.0 1.0 0.00 0.44 0.42 44 1008.0
20260507220249 67 248 0.0 3.0 0.00 0.44 0.42 43 1008.0
20260507213249 67 312 0.0 5.0 0.00 0.44 0.42 43 1008.1
20260507212250 66 51 0.0 1.0 0.00 0.44 0.42 43 1007.9
20260507211248 66 122 0.0 3.0 0.00 0.44 0.42 42 1007.8
20260507210248 68 308 0.0 3.0 0.00 0.44 0.42 42 1007.7
20260507205247 67 253 0.0 3.0 0.00 0.44 0.42 42 1007.7
20260507204248 67 129 0.0 3.0 0.00 0.44 0.42 42 1007.6
20260507203248 67 47 0.0 3.0 0.00 0.44 0.42 43 1007.8
20260507201248 67 241 1.0 8.0 0.00 0.44 0.42 42 1007.8
20260507200248 68 357 0.0 3.0 0.00 0.44 0.42 40 1007.9
20260507195248 68 241 0.0 3.0 0.00 0.44 0.42 43 1008.0
20260507194248 67 98 1.0 6.0 0.00 0.44 0.42 46 1008.1
20260507193249 67 28 1.0 4.0 0.00 0.44 0.42 44 1008.3
20260507192249 66 212 0.0 3.0 0.00 0.44 0.42 49 1008.3
20260507191247 64 257 2.0 7.0 0.00 0.44 0.42 42 1008.5
20260507190248 65 262 2.0 6.0 0.00 0.44 0.42 49 1008.6
20260507185248 66 245 1.0 7.0 0.00 0.44 0.42 45 1008.7
20260507184247 65 256 3.0 7.0 0.00 0.44 0.42 47 1008.7
20260507183243 65 258 2.0 8.0 0.00 0.44 0.42 48 1008.7
20260507182244 66 231 1.0 4.0 0.00 0.44 0.42 45 1008.8
20260507181241 66 54 1.0 7.0 0.00 0.45 0.42 48 1008.8
20260507174235 64 302 2.0 9.0 0.00 0.45 0.42 49 1009.6
20260507173236 64 225 2.0 7.0 0.00 0.45 0.42 43 1009.7
20260507172234 65 252 1.0 6.0 0.00 0.45 0.42 48 1009.8
20260507171232 65 101 1.0 4.0 0.00 0.45 0.42 46 1010.1
20260507170234 64 327 0.0 4.0 0.00 0.45 0.42 47 1010.2
20260507165226 64 222 0.0 3.0 0.00 0.45 0.42 54 1010.2
20260507164225 64 105 0.0 3.0 0.00 0.46 0.42 53 1010.5
20260507154225 62 139 0.0 3.0 0.00 0.52 0.42 55 1011.1
20260507153225 61 212 1.0 5.0 0.00 0.52 0.42 56 1011.3
20260507152220 61 274 0.0 6.0 0.00 0.52 0.42 59 1011.3
20260507150220 59 315 1.0 4.0 0.00 0.52 0.42 62 1011.6
20260507145220 58 107 0.0 4.0 0.00 0.52 0.42 66 1011.6
20260507144221 59 336 1.0 4.0 0.00 0.52 0.42 67 1011.6
20260507143220 58 250 1.0 6.0 0.00 0.52 0.42 69 1011.7
20260507141220 56 162 1.0 4.0 0.00 0.52 0.42 82 1011.7
20260507140221 55 321 1.0 5.0 0.00 0.52 0.42 92 1011.7
20260507135215 53 204 0.0 4.0 0.00 0.52 0.42 96 1011.7
20260507134212 53 95 0.0 2.0 0.00 0.52 0.42 99 1011.8
20260507133217 52 206 0.0 3.0 0.00 0.52 0.42 98 1011.8
20260507132218 52 4 0.0 2.0 0.00 0.52 0.42 99 1011.8
20260507131213 51 130 0.0 2.0 0.00 0.52 0.42 100 1011.9
20260507125215 50 208 0.0 0.0 0.00 0.52 0.42 100 1012.0
20260507124211 50 254 0.0 0.0 0.00 0.52 0.42 100 1011.9
20260507123211 50 230 0.0 0.0 0.00 0.52 0.42 100 1011.9
20260507122212 49 227 0.0 0.0 0.00 0.52 0.42 100 1012.0
20260507121210 49 218 0.0 0.0 0.00 0.52 0.42 100 1012.0
20260507120211 49 271 0.0 0.0 0.00 0.52 0.42 100 1011.9
20260507115210 50 214 0.0 0.0 0.00 0.52 0.42 100 1011.8
20260507114210 50 193 0.0 0.0 0.00 0.52 0.42 100 1011.7
20260507113211 50 130 0.0 0.0 0.00 0.52 0.42 100 1011.4
20260507112211 49 130 0.0 0.0 0.00 0.52 0.42 100 1011.4
20260507111211 49 225 0.0 0.0 0.00 0.52 0.42 100 1011.1
20260507110209 49 230 0.0 0.0 0.00 0.52 0.42 100 1011.0
20260507104207 49 232 0.0 0.0 0.00 0.52 0.42 100 1010.7
20260507103206 49 231 0.0 0.0 0.00 0.52 0.42 100 1010.5
20260507102206 49 231 0.0 0.0 0.00 0.52 0.42 100 1010.4
20260507101206 49 231 0.0 0.0 0.00 0.52 0.42 100 1010.5
20260507100206 49 231 0.0 0.0 0.00 0.52 0.42 100 1010.4
20260507095206 49 231 0.0 0.0 0.00 0.52 0.42 100 1010.2
20260507094203 49 231 0.0 0.0 0.00 0.52 0.42 100 1010.2
20260507093201 49 231 0.0 0.0 0.00 0.52 0.42 100 1010.1
20260507092200 49 231 0.0 0.0 0.01 0.52 0.42 100 1009.9
20260507091200 49 231 0.0 0.0 0.01 0.52 0.42 100 1010.3
20260507090201 49 231 0.0 0.0 0.02 0.52 0.42 99 1010.2
20260507084202 49 231 0.0 0.0 0.04 0.52 0.42 99 1010.1
20260507083158 49 231 0.0 0.0 0.04 0.52 0.42 99 1010.3
20260507082200 49 231 0.0 0.0 0.05 0.51 0.42 99 1010.4
20260507081158 49 204 0.0 0.0 0.05 0.51 0.41 98 1010.6
20260507075157 49 234 0.0 0.0 0.06 0.49 0.39 97 1010.6
20260507074159 49 271 0.0 0.0 0.07 0.48 0.38 97 1010.6
20260507073155 50 280 0.0 1.0 0.09 0.48 0.38 97 1010.5
20260507072156 50 241 0.0 4.0 0.09 0.46 0.37 96 1011.2
20260507071159 50 218 0.0 3.0 0.11 0.46 0.36 96 1010.3
20260507070157 51 209 0.0 4.0 0.13 0.45 0.35 96 1010.4
20260507065156 51 223 0.0 3.0 0.15 0.43 0.33 97 1010.4
20260507064157 51 207 0.0 3.0 0.19 0.41 0.31 97 1010.5
20260507062156 51 236 0.0 4.0 0.22 0.37 0.27 96 1010.0
20260507061156 51 231 0.0 3.0 0.25 0.35 0.25 96 1010.3
20260507060155 52 238 0.0 3.0 0.22 0.32 0.23 95 1010.1
20260507055157 52 251 0.0 3.0 0.18 0.28 0.18 95 1010.4
20260507054156 53 250 0.0 4.0 0.12 0.22 0.12 94 1010.5
20260507053155 54 198 0.0 1.0 0.09 0.19 0.10 92 1009.2
20260507052157 55 260 0.0 3.0 0.05 0.15 0.05 90 1009.7
20260507051153 55 262 0.0 2.0 0.00 0.10 0.00 89 1009.9
20260507050153 55 43 0.0 3.0 0.00 0.10 0.00 89 1009.2
20260507045152 56 301 0.0 1.0 0.00 0.10 0.00 88 1009.1
20260507044152 56 288 0.0 4.0 0.00 0.10 0.00 87 1009.4
20260507043152 56 217 0.0 3.0 0.00 0.10 0.00 87 1009.7
20260507040147 56 232 0.0 0.0 0.00 0.10 0.00 89 1009.6
20260507035147 56 195 0.0 2.0 0.00 0.10 0.10 88 1009.7
20260507034144 56 88 0.0 3.0 0.00 0.10 0.10 89 1009.6
20260507033144 56 309 0.0 1.0 0.00 0.10 0.10 89 1009.4
20260507032145 57 191 0.0 4.0 0.00 0.10 0.10 89 1009.8
20260507031139 57 209 0.0 2.0 0.00 0.10 0.10 90 1009.3
20260507030137 57 195 0.0 3.0 0.00 0.10 0.10 90 1009.2
20260507025139 58 226 0.0 5.0 0.01 0.10 0.10 90 1009.2
20260507024138 60 314 0.0 2.0 0.02 0.10 0.10 92 1009.1
20260507023138 61 228 0.0 3.0 0.02 0.10 0.10 92 1009.1
20260507022138 62 275 1.0 5.0 0.02 0.10 0.10 94 1009.0
20260507021138 63 258 0.0 3.0 0.02 0.10 0.10 94 1009.0
20260507020138 64 263 1.0 3.0 0.02 0.10 0.10 92 1008.8
20260507015139 65 262 1.0 6.0 0.01 0.09 0.09 90 1008.8
20260507014132 66 263 0.0 3.0 0.00 0.08 0.08 88 1008.6
20260507013134 66 203 0.0 4.0 0.00 0.08 0.08 88 1008.2
20260507011132 66 203 0.0 1.0 0.00 0.08 0.08 88 1008.5
20260507010132 66 238 0.0 2.0 0.00 0.08 0.08 88 1007.8
20260507005131 66 231 0.0 2.0 0.00 0.08 0.08 88 1007.6
20260507004131 66 181 0.0 1.0 0.00 0.08 0.08 88 1007.7
20260507003132 66 213 0.0 1.0 0.00 0.08 0.08 88 1007.6